[[{"header":{"parameterUnit":"m.s-1","parameterCategory":2,"la1":30.2991,"la2":30.254,"lo1":-89.0895,"lo2":-89.0444,"dy":0.0017,"dx":0.0017,"nx":28,"ny":28,"refTime":"2024-05-26T21:00:00:Z","depth":"0","parameterNumber":2,"parameterNumberName":"U-component_of_CURRENTS"},"data":[0,0,0,0,0,0,0,0,0,0,0,0,0,0,0,0,0,0,0,0,0,0,0,0,0,0,0,0,0,0,0,0,0,0,0,0,0,0,0,0,0,0,0,0,0,0,0,0,0,0,0,0,0,0,0,0,0,0,0.1867,0.1867,0,0.1889,0.1889,0.1889,0.1886,0.1886,0.1885,0.1885,0.1899,0.1899,0.19,0,0,0,0,0,0,0,0,0,0,0,0,0,0.1847,0.1848,0.1867,0.1867,0.1868,0.1888,0.1889,0.1889,0.1886,0.1886,0.1885,0.1885,0.1898,0.1899,0.19,0,0,0,0,0,0,0,0,0,0,0,0,0,0.186,0.1848,0.1867,0.1869,0.187,0.1888,0.1889,0.1889,0.1886,0.1886,0.1885,0.1885,0.1898,0.1899,0.19,0.1914,0,0,0.1903,0.1903,0,0,0,0,0,0,0,0,0.186,0.1861,0.1869,0.1869,0.187,0.1885,0.1887,0.1897,0.1886,0.1879,0.1885,0.1885,0.1894,0.1895,0.1899,0.1915,0.1916,0.1903,0.1904,0.1904,0.1904,0,0,0,0,0,0,0,0.1859,0.186,0.1875,0.1869,0.187,0.1878,0.1879,0.1889,0.1888,0.188,0.188,0.1883,0.1894,0.1898,0.19,0.1916,0.1903,0.1904,0.1904,0.1905,0.1962,0.1963,0,0,0,0,0,0,0.1857,0.1859,0.1874,0.1875,0.1864,0.1878,0.1879,0.188,0.1888,0.1889,0.1884,0.1883,0.1897,0.1899,0.19,0.193,0.1904,0.1905,0.1905,0.1961,0.1963,0.1964,0,0,0,0,0,0,0.1856,0.1858,0.1873,0.1869,0.1871,0.1879,0.1879,0.188,0.1886,0.1891,0.1892,0.1888,0.1897,0.1899,0.1911,0.193,0.1905,0.1906,0.196,0.1962,0.1963,0.1982,0,0,0,0,0,0,0.1856,0.1857,0.1857,0.1868,0.1871,0.1882,0.188,0.1881,0.1889,0.1888,0.1896,0.1896,0.1897,0.191,0.1912,0.1931,0.1907,0.1959,0.1961,0.1963,0.198,0.1984,0.1987,0,0,0,0,0,0.1855,0.1855,0.1857,0.1859,0.1871,0.1882,0.1884,0.1888,0.189,0.1891,0.1899,0.1896,0.1923,0.1911,0.1914,0.1933,0.1958,0.196,0.1962,0.1978,0.1983,0.1987,0,0,0,0,0,0,0.1846,0.1855,0.1858,0.1861,0.187,0.1882,0.1886,0.1891,0.1899,0.1899,0.1904,0.1905,0.193,0.1928,0.1914,0.1956,0.1942,0.1945,0.1954,0.1958,0.1961,0.1965,0.1908,0,0,0,0,0,0.1845,0.1847,0.1859,0.1861,0.1866,0.1878,0.1884,0.1888,0.1897,0.19,0.1905,0.1917,0.1942,0.1945,0.1961,0.1976,0.1987,0.1993,0.1996,0.1999,0.2005,0.2044,0.2051,0.1971,0.1971,0.1971,0,0,0.1841,0.1848,0.1848,0.1859,0.1867,0.1878,0.188,0.1889,0.1901,0.1901,0.1915,0.1932,0.1951,0.1974,0.1984,0.1971,0.2026,0.2002,0.2004,0.2009,0.2047,0.2054,0.2061,0.1972,0.1972,0.1972,0,0,0.1837,0.1842,0.1843,0.1854,0.1868,0.1878,0.1882,0.1895,0.1903,0.1922,0.1933,0.1958,0.198,0.1999,0.2014,0.2046,0.2049,0.2052,0.2064,0.2102,0.2108,0.2115,0.2128,0.2136,0.2045,0.2046,0.2046,0,0.1834,0.1836,0.1846,0.1854,0.1864,0.1879,0.1888,0.1903,0.1918,0.1931,0.1928,0.1985,0.1997,0.204,0.2053,0.2055,0.2068,0.2045,0.2106,0.2112,0.2118,0.2131,0.2139,0.2047,0.2047,0.2046,0.2046,0,0.1834,0.1837,0.1841,0.1856,0.1869,0.1878,0.1902,0.1917,0.1933,0.1951,0.1994,0.2016,0.2048,0.2062,0.2069,0.2119,0.2112,0.2112,0.2093,0.2128,0.2139,0.2146,0.2048,0.2048,0.2048,0.2047,0,0,0.1818,0.1836,0.1836,0.1841,0.1871,0.1879,0.191,0.1941,0.1964,0.199,0.2025,0.2073,0.2084,0.2102,0.2115,0.2147,0.2198,0.2146,0.2147,0.2155,0.2267,0.2224,0.2228,0.221,0.2211,0.2213,0.2254,0,0.1814,0.1822,0.1837,0.1849,0.1857,0.1887,0.1913,0.1947,0.198,0.2017,0.2058,0.2098,0.2099,0.212,0.2153,0.2198,0.2221,0.2186,0.2236,0.2238,0.2193,0.2237,0.2197,0.2227,0.2261,0.2263,0.2264,0,0.1806,0.1814,0.1821,0.1844,0.1851,0.1866,0.1913,0.194,0.2003,0.2032,0.2082,0.2113,0.2174,0.2167,0.2249,0.2227,0.2248,0.2273,0.2275,0.2236,0.221,0.2202,0.224,0.2197,0.2276,0.2275,0.2274,0,0.1783,0.18,0.1802,0.1811,0.1844,0.186,0.1885,0.1943,0.1975,0.2047,0.2086,0.2148,0.2195,0.2239,0.2291,0.2276,0.2376,0.2359,0.2334,0.233,0.2305,0.2296,0.2306,0.241,0.241,0.241,0.241,0,0.1768,0.1769,0.179,0.1791,0.1803,0.1839,0.1868,0.1908,0.1977,0.2025,0.2088,0.2144,0.2221,0.2283,0.2309,0.2351,0.2389,0.2348,0.2347,0.2308,0.2299,0.2268,0.2238,0.2411,0.2411,0.2411,0.241,0,0.1738,0.1751,0.1753,0.178,0.1788,0.1799,0.1852,0.1881,0.1953,0.2024,0.2052,0.2162,0.2246,0.2303,0.2386,0.2376,0.2341,0.2413,0.235,0.234,0.225,0.2222,0.2033,0.1997,0.2386,0.2385,0.2385,0,0.1724,0.172,0.1734,0.1736,0.1746,0.1769,0.179,0.1859,0.1901,0.2034,0.207,0.2179,0.2249,0.2347,0.2368,0.2398,0.2318,0.2354,0.2315,0.2248,0.2219,0.2025,0.1997,0.2289,0.2288,0.2287,0.2286,0,0.1698,0.1699,0.1701,0.1701,0.1712,0.1726,0.1768,0.1794,0.1891,0.1962,0.2064,0.2133,0.2247,0.2283,0.2326,0.2332,0.2224,0.2329,0.2295,0.2172,0.193,0.1895,0.2242,0.2277,0.2278,0.2278,0.2279,0.2279,0.1677,0.1667,0.1665,0.1658,0.1668,0.1675,0.1674,0.1737,0.1793,0.1893,0.2002,0.209,0.2212,0.2273,0.2254,0.221,0.2136,0.2164,0.2146,0.196,0.189,0.2196,0.2204,0.2205,0.2205,0.2206,0.2206,0,0.1644,0.1632,0.1625,0.1609,0.1595,0.162,0.1649,0.1649,0.1688,0.1821,0.1905,0.2041,0.2082,0.2142,0.2155,0.2069,0.1924,0.2004,0.1769,0.1766,0.21,0.2066,0.2003,0.2003,0.2003,0.2003,0.2003,0.2003,0.1628,0.1599,0.1583,0.1534,0.1524,0.1494,0.1494,0.1514,0.1584,0.1682,0.1775,0.1873,0.2009,0.2049,0.1987,0.1934,0.1765,0.1611,0.1605,0.1914,0.1928,0.1942,0.1904,0.1808,0.1807,0.1197,0.1193,0.119]},{"header":{"parameterUnit":"m.s-1","parameterCategory":2,"la1":30.2991,"la2":30.254,"lo1":-89.0895,"lo2":-89.0444,"dy":0.0017,"dx":0.0017,"nx":28,"ny":28,"refTime":"2024-05-26T21:00:00:Z","depth":"0","parameterNumber":3,"parameterNumberName":"V-component_of_CURRENTS"},"data":[0,0,0,0,0,0,0,0,0,0,0,0,0,0,0,0,0,0,0,0,0,0,0,0,0,0,0,0,0,0,0,0,0,0,0,0,0,0,0,0,0,0,0,0,0,0,0,0,0,0,0,0,0,0,0,0,0,0,0.0304,0.0304,0,0.0288,0.0288,0.0288,0.0271,0.0271,0.0271,0.0271,0.0237,0.0237,0.0236,0,0,0,0,0,0,0,0,0,0,0,0,0,0.0298,0.0298,0.0304,0.0304,0.0304,0.0288,0.0288,0.0288,0.0271,0.0271,0.0271,0.0271,0.0238,0.0237,0.0236,0,0,0,0,0,0,0,0,0,0,0,0,0,0.0293,0.0299,0.0304,0.0295,0.0294,0.0288,0.0288,0.0288,0.0271,0.0271,0.0271,0.027,0.0238,0.0237,0.0236,0.0233,0,0,0.0232,0.0232,0,0,0,0,0,0,0,0,0.0293,0.0293,0.0296,0.0295,0.0294,0.0282,0.0274,0.0269,0.0271,0.0279,0.0271,0.027,0.0251,0.0249,0.0246,0.0232,0.0231,0.0232,0.0232,0.0231,0.0231,0,0,0,0,0,0,0,0.0293,0.0293,0.0297,0.0296,0.0295,0.0283,0.0282,0.0273,0.0266,0.0278,0.0277,0.0277,0.0251,0.0247,0.0245,0.023,0.0232,0.0231,0.0231,0.023,0.0218,0.0218,0,0,0,0,0,0,0.0299,0.0294,0.0298,0.0297,0.0294,0.0284,0.0283,0.0286,0.0266,0.0263,0.0277,0.0276,0.0249,0.0246,0.0244,0.0254,0.0231,0.023,0.0229,0.0218,0.0218,0.0218,0,0,0,0,0,0,0.0299,0.0299,0.0298,0.0295,0.0294,0.0284,0.0288,0.0285,0.0283,0.0266,0.0262,0.0277,0.0249,0.0245,0.024,0.0252,0.023,0.0229,0.0217,0.0218,0.0218,0.0265,0,0,0,0,0,0,0.0299,0.0299,0.0303,0.0296,0.0295,0.03,0.0288,0.0285,0.0284,0.0282,0.0265,0.0261,0.0248,0.0241,0.0238,0.025,0.0228,0.0217,0.0217,0.0218,0.0263,0.0267,0.027,0,0,0,0,0,0.0298,0.0306,0.0304,0.0304,0.0301,0.03,0.0299,0.029,0.0284,0.0287,0.0275,0.0262,0.0243,0.0241,0.0237,0.0249,0.0216,0.0217,0.0218,0.0261,0.0266,0.027,0,0,0,0,0,0,0.0305,0.0305,0.0302,0.0309,0.0307,0.0298,0.0299,0.0294,0.0286,0.0284,0.0266,0.0262,0.0262,0.0248,0.0245,0.0246,0.0228,0.0228,0.0262,0.0266,0.027,0.0276,0.0227,0,0,0,0,0,0.0309,0.0315,0.0312,0.0318,0.0318,0.0309,0.0308,0.0302,0.0295,0.0292,0.028,0.0268,0.0262,0.0258,0.0248,0.0249,0.0233,0.0253,0.0257,0.026,0.0262,0.0252,0.0256,0.0221,0.0221,0.0221,0,0,0.0312,0.0314,0.0317,0.032,0.0316,0.0324,0.0308,0.0308,0.0316,0.0289,0.0294,0.0279,0.0265,0.0267,0.0265,0.0257,0.0261,0.0261,0.0264,0.0264,0.0254,0.0257,0.026,0.0221,0.0221,0.0221,0,0,0.0325,0.0325,0.0335,0.0337,0.0337,0.0334,0.0337,0.033,0.0328,0.0331,0.0314,0.0308,0.0298,0.029,0.0286,0.0303,0.0281,0.03,0.0326,0.0316,0.0319,0.0322,0.0306,0.0306,0.0303,0.0303,0.0303,0,0.0329,0.0344,0.0338,0.0349,0.0357,0.0342,0.0357,0.0354,0.0347,0.0351,0.0338,0.0326,0.0311,0.0318,0.0322,0.0313,0.03,0.0312,0.0322,0.0324,0.0326,0.0308,0.0308,0.0306,0.0305,0.0305,0.0305,0,0.0352,0.0364,0.037,0.0384,0.039,0.0399,0.0398,0.04,0.0396,0.0394,0.0396,0.0372,0.0366,0.036,0.0347,0.0354,0.0339,0.0328,0.0313,0.0332,0.0313,0.0312,0.0309,0.0308,0.0307,0.0307,0,0,0.0364,0.0383,0.0387,0.0401,0.041,0.0419,0.0433,0.0446,0.0461,0.0445,0.0462,0.0444,0.0427,0.042,0.0399,0.0388,0.0386,0.0366,0.0364,0.0354,0.0362,0.0368,0.0367,0.0379,0.0379,0.0379,0.0344,0,0.0385,0.0416,0.0421,0.0454,0.0471,0.0469,0.0488,0.0496,0.0497,0.0507,0.0484,0.0488,0.0452,0.045,0.0433,0.0403,0.0386,0.0396,0.0341,0.034,0.0346,0.0367,0.0426,0.0401,0.0343,0.0343,0.0343,0,0.041,0.0429,0.0464,0.0496,0.0504,0.0521,0.0551,0.0566,0.0574,0.0575,0.0568,0.0549,0.0534,0.0498,0.0448,0.0458,0.0412,0.0381,0.0378,0.0367,0.0344,0.0372,0.0401,0.0377,0.0341,0.0341,0.0341,0,0.0428,0.0461,0.0493,0.0503,0.0534,0.0551,0.0568,0.0586,0.0613,0.0619,0.0637,0.0605,0.0601,0.0541,0.0474,0.0463,0.0418,0.0394,0.0351,0.035,0.0381,0.0383,0.0385,0.0352,0.0352,0.0352,0.0353,0,0.0453,0.0478,0.0504,0.0522,0.0565,0.0577,0.0623,0.0634,0.0663,0.0711,0.0673,0.07,0.0614,0.0578,0.0498,0.0431,0.0435,0.036,0.0346,0.0398,0.0402,0.0366,0.0335,0.0351,0.0351,0.0352,0.0352,0,0.0469,0.0486,0.0524,0.056,0.0575,0.0606,0.0663,0.07,0.0719,0.0779,0.0787,0.0777,0.074,0.0645,0.0556,0.0477,0.0398,0.0369,0.0433,0.0427,0.0363,0.0333,0.0294,0.0325,0.0318,0.0318,0.0318,0,0.048,0.05,0.055,0.0579,0.0598,0.0646,0.0688,0.0725,0.0774,0.0838,0.0875,0.0858,0.0875,0.0741,0.0603,0.047,0.0419,0.0415,0.0401,0.0377,0.0332,0.0304,0.0332,0.0455,0.0456,0.0457,0.0458,0,0.0499,0.0516,0.0548,0.0608,0.0656,0.0717,0.078,0.0831,0.0894,0.096,0.1043,0.1065,0.0954,0.0874,0.0681,0.0574,0.0435,0.0429,0.0396,0.0436,0.0414,0.0433,0.045,0.0466,0.0465,0.0465,0.0464,0.0464,0.0512,0.0538,0.0584,0.0642,0.0702,0.0786,0.0852,0.0942,0.1049,0.1178,0.1184,0.1281,0.1144,0.0908,0.0736,0.0512,0.0492,0.0459,0.0422,0.0392,0.0438,0.0468,0.0473,0.0472,0.0472,0.0471,0.0471,0,0.053,0.0564,0.0616,0.0693,0.0764,0.0795,0.0916,0.1007,0.1159,0.1313,0.1413,0.1492,0.1287,0.1054,0.0733,0.0558,0.0501,0.0466,0.0452,0.0481,0.0508,0.0532,0.0562,0.0562,0.0562,0.0562,0.0562,0.0562,0.0541,0.0591,0.0619,0.0731,0.0791,0.0905,0.0984,0.114,0.129,0.1551,0.1713,0.1821,0.1736,0.1053,0.0671,0.0561,0.0486,0.0428,0.0399,0.042,0.0417,0.0414,0.0431,0.0439,0.0438,0.0435,0.0435,0.0434]}],[{"header":{"parameterUnit":"m.s-1","parameterCategory":2,"la1":30.2991,"la2":30.254,"lo1":-89.0895,"lo2":-89.0444,"dy":0.0017,"dx":0.0017,"nx":28,"ny":28,"refTime":"2024-05-26T21:00:00:Z","depth":"2","parameterNumber":2,"parameterNumberName":"U-component_of_CURRENTS"},"data":[0,0,0,0,0,0,0,0,0,0,0,0,0,0,0,0,0,0,0,0,0,0,0,0,0,0,0,0,0,0,0,0,0,0,0,0,0,0,0,0,0,0,0,0,0,0,0,0,0,0,0,0,0,0,0,0,0,0,0.1772,0.1773,0,0.179,0.179,0.179,0.1789,0.1788,0.1788,0.1788,0.1801,0.1802,0.1802,0,0,0,0,0,0,0,0,0,0,0,0,0,0.1757,0.1757,0.1772,0.1773,0.1773,0.179,0.179,0.179,0.1789,0.1788,0.1788,0.1788,0.1801,0.1802,0.1802,0,0,0,0,0,0,0,0,0,0,0,0,0,0.1767,0.1757,0.1772,0.1775,0.1775,0.179,0.179,0.179,0.1789,0.1788,0.1788,0.1788,0.1801,0.1802,0.1802,0.1813,0,0,0.1805,0.1805,0,0,0,0,0,0,0,0,0.1767,0.1768,0.1774,0.1775,0.1775,0.1788,0.179,0.1798,0.1789,0.1783,0.1788,0.1788,0.1797,0.1798,0.1801,0.1813,0.1814,0.1805,0.1805,0.1806,0.1806,0,0,0,0,0,0,0,0.1766,0.1767,0.1778,0.1775,0.1775,0.1782,0.1783,0.1791,0.179,0.1783,0.1783,0.1787,0.1797,0.18,0.1801,0.1814,0.1805,0.1805,0.1806,0.1806,0.186,0.1861,0,0,0,0,0,0,0.1765,0.1766,0.1778,0.1779,0.1771,0.1783,0.1783,0.1783,0.179,0.1792,0.1787,0.1787,0.1799,0.18,0.1802,0.1832,0.1806,0.1806,0.1807,0.1859,0.1861,0.1862,0,0,0,0,0,0,0.1764,0.1766,0.1777,0.1774,0.1776,0.1783,0.1783,0.1784,0.179,0.1794,0.1794,0.1793,0.1799,0.18,0.1812,0.1832,0.1807,0.1807,0.1858,0.186,0.1861,0.1881,0,0,0,0,0,0,0.1764,0.1765,0.1766,0.1774,0.1776,0.1785,0.1783,0.1784,0.1793,0.1793,0.1799,0.18,0.1799,0.1811,0.1813,0.1832,0.1808,0.1857,0.1859,0.1861,0.188,0.1883,0.1887,0,0,0,0,0,0.1763,0.1764,0.1766,0.1768,0.1777,0.1785,0.1787,0.1791,0.1793,0.1796,0.1802,0.18,0.1825,0.1812,0.1815,0.1834,0.1856,0.1858,0.186,0.1878,0.1883,0.1887,0,0,0,0,0,0,0.1758,0.1765,0.1767,0.177,0.1777,0.1785,0.179,0.1795,0.1803,0.1804,0.1807,0.1808,0.1832,0.1829,0.1816,0.1857,0.1842,0.1845,0.1855,0.1859,0.1863,0.1867,0.1809,0,0,0,0,0,0.1758,0.1759,0.1769,0.1771,0.1776,0.1785,0.179,0.1794,0.1802,0.1805,0.1809,0.1821,0.1843,0.1846,0.1861,0.1875,0.1884,0.1892,0.1895,0.1898,0.1904,0.194,0.1948,0.1869,0.1869,0.1869,0,0,0.1756,0.1761,0.1761,0.177,0.1777,0.1786,0.1787,0.1796,0.1807,0.1806,0.1819,0.1835,0.1852,0.1874,0.1884,0.1871,0.1924,0.1901,0.1903,0.1907,0.1944,0.1951,0.1958,0.187,0.187,0.187,0,0,0.1753,0.1758,0.1759,0.1768,0.178,0.1788,0.1793,0.1803,0.1811,0.183,0.1839,0.1863,0.1883,0.1899,0.1913,0.1944,0.1948,0.1951,0.1965,0.2,0.2007,0.2013,0.2026,0.2033,0.1946,0.1946,0.1946,0,0.1752,0.1753,0.1761,0.1769,0.1777,0.1791,0.1798,0.1812,0.1825,0.1838,0.1836,0.1889,0.1899,0.1939,0.1952,0.1953,0.1966,0.1945,0.2005,0.2011,0.2017,0.2029,0.2037,0.1947,0.1947,0.1947,0.1947,0,0.1752,0.1755,0.1759,0.1772,0.1784,0.1792,0.1813,0.1827,0.1843,0.1858,0.19,0.192,0.1949,0.1963,0.1969,0.2018,0.2011,0.201,0.1992,0.2026,0.2037,0.2044,0.1949,0.1948,0.1948,0.1948,0,0,0.174,0.1755,0.1755,0.1759,0.1786,0.1792,0.1822,0.1849,0.187,0.1896,0.1928,0.1973,0.1986,0.2002,0.2015,0.2045,0.2096,0.2045,0.2046,0.2054,0.2163,0.212,0.2123,0.2108,0.2109,0.2111,0.215,0,0.1737,0.1743,0.1756,0.1767,0.1773,0.18,0.1824,0.1854,0.1886,0.192,0.196,0.1997,0.2,0.2021,0.2053,0.2095,0.2118,0.2084,0.2132,0.2133,0.2088,0.2132,0.1957,0.1975,0.2157,0.2158,0.2159,0,0.173,0.1736,0.1742,0.1762,0.1768,0.1781,0.1824,0.1848,0.1908,0.1935,0.1983,0.2013,0.2071,0.2067,0.2145,0.2125,0.2145,0.2169,0.2171,0.213,0.2105,0.1973,0.1981,0.2172,0.2171,0.217,0.2169,0,0.1709,0.1724,0.1726,0.1733,0.1762,0.1776,0.18,0.1853,0.1883,0.1951,0.1988,0.2047,0.2094,0.2136,0.2186,0.2173,0.2267,0.2251,0.2225,0.2221,0.2081,0.2062,0.23,0.23,0.23,0.23,0.23,0,0.1696,0.1697,0.1715,0.1716,0.1726,0.1759,0.1786,0.1823,0.1888,0.1931,0.1992,0.2044,0.2119,0.2179,0.2203,0.2242,0.228,0.2239,0.2237,0.2082,0.2064,0.2242,0.2234,0.2302,0.2301,0.2301,0.2301,0,0.1669,0.168,0.1682,0.1706,0.1713,0.1723,0.1772,0.1798,0.1867,0.1932,0.196,0.2063,0.2142,0.2198,0.2277,0.2267,0.2303,0.23,0.2104,0.2079,0.2223,0.2217,0.2274,0.2273,0.2272,0.2272,0.2271,0,0.1656,0.1653,0.1665,0.1666,0.1675,0.1697,0.1715,0.1779,0.1817,0.1941,0.1974,0.2078,0.2138,0.2231,0.2232,0.2255,0.2301,0.2099,0.2043,0.2232,0.2225,0.222,0.2214,0.1859,0.1855,0.1852,0.1849,0,0.1631,0.1633,0.1634,0.1634,0.1643,0.1655,0.1692,0.1715,0.1805,0.187,0.196,0.2022,0.2111,0.2069,0.2103,0.2088,0.2081,0.2035,0.2296,0.1897,0.1846,0.1837,0.1845,0.1821,0.1824,0.1826,0.1827,0.1828,0.1613,0.1602,0.1601,0.1594,0.1602,0.1604,0.16,0.1653,0.17,0.1771,0.1877,0.1909,0.1943,0.1911,0.1858,0.1807,0.1954,0.1861,0.1869,0.188,0.183,0.178,0.1733,0.1735,0.1737,0.1738,0.174,0,0.1579,0.157,0.1563,0.1545,0.1526,0.1553,0.1574,0.1555,0.1579,0.1662,0.172,0.1608,0.1593,0.1617,0.1505,0.1508,0.1466,0.1436,0.1369,0.14,0.1427,0.1351,0.1127,0.1125,0.1123,0.1121,0,0,0.1563,0.1534,0.1518,0.1466,0.1457,0.1417,0.1413,0.1398,0.1423,0.1415,0.1421,0.1545,0.1597,0.1355,0.1319,0.1206,0.1287,0.115,0.1648,0.1603,0.1627,0.1686,0.1607,0,0,0,0,0]},{"header":{"parameterUnit":"m.s-1","parameterCategory":2,"la1":30.2991,"la2":30.254,"lo1":-89.0895,"lo2":-89.0444,"dy":0.0017,"dx":0.0017,"nx":28,"ny":28,"refTime":"2024-05-26T21:00:00:Z","depth":"2","parameterNumber":3,"parameterNumberName":"V-component_of_CURRENTS"},"data":[0,0,0,0,0,0,0,0,0,0,0,0,0,0,0,0,0,0,0,0,0,0,0,0,0,0,0,0,0,0,0,0,0,0,0,0,0,0,0,0,0,0,0,0,0,0,0,0,0,0,0,0,0,0,0,0,0,0,0.0211,0.0211,0,0.0191,0.0191,0.0191,0.0174,0.0174,0.0174,0.0174,0.0141,0.014,0.0139,0,0,0,0,0,0,0,0,0,0,0,0,0,0.0211,0.0211,0.0211,0.0211,0.0211,0.0191,0.0191,0.0191,0.0174,0.0174,0.0174,0.0174,0.0141,0.014,0.0139,0,0,0,0,0,0,0,0,0,0,0,0,0,0.0202,0.0211,0.0211,0.0201,0.02,0.0191,0.0191,0.0191,0.0174,0.0174,0.0174,0.0174,0.0141,0.014,0.0139,0.0134,0,0,0.0135,0.0135,0,0,0,0,0,0,0,0,0.0203,0.0202,0.0203,0.0202,0.02,0.0186,0.0179,0.0171,0.0174,0.0183,0.0174,0.0174,0.0155,0.0153,0.0148,0.0133,0.0131,0.0135,0.0134,0.0134,0.0133,0,0,0,0,0,0,0,0.0203,0.0203,0.0202,0.0202,0.0201,0.0189,0.0188,0.0177,0.0169,0.0182,0.0181,0.0181,0.0154,0.015,0.0147,0.0131,0.0135,0.0134,0.0133,0.0133,0.0119,0.012,0,0,0,0,0,0,0.0209,0.0204,0.0203,0.0202,0.0202,0.0189,0.0188,0.019,0.017,0.0167,0.0181,0.018,0.0152,0.0149,0.0146,0.0157,0.0134,0.0133,0.0132,0.0119,0.0119,0.012,0,0,0,0,0,0,0.0209,0.0209,0.0204,0.0203,0.0201,0.019,0.0192,0.019,0.0188,0.0169,0.0165,0.0182,0.0151,0.0148,0.0142,0.0155,0.0132,0.0131,0.0118,0.0119,0.012,0.0168,0,0,0,0,0,0,0.0209,0.021,0.0214,0.0203,0.0202,0.0204,0.0192,0.0189,0.0188,0.0187,0.0169,0.0165,0.0151,0.0144,0.0141,0.0153,0.013,0.0118,0.0119,0.0119,0.0166,0.017,0.0173,0,0,0,0,0,0.0209,0.0217,0.0214,0.0214,0.0207,0.0205,0.0203,0.0193,0.0189,0.0191,0.0179,0.0166,0.0146,0.0144,0.014,0.0152,0.0118,0.0118,0.0119,0.0164,0.0169,0.0173,0,0,0,0,0,0,0.0218,0.0216,0.0212,0.0218,0.0214,0.0203,0.0204,0.0198,0.019,0.0189,0.017,0.0166,0.0166,0.0151,0.0148,0.0149,0.013,0.013,0.0165,0.017,0.0173,0.018,0.0129,0,0,0,0,0,0.0223,0.0228,0.0222,0.0227,0.0227,0.0216,0.0214,0.0208,0.02,0.0197,0.0185,0.0172,0.0165,0.0162,0.015,0.0151,0.0136,0.0156,0.016,0.0163,0.0166,0.0156,0.016,0.0122,0.0122,0.0122,0,0,0.0227,0.0227,0.023,0.023,0.0225,0.0232,0.0215,0.0215,0.0222,0.0194,0.0199,0.0184,0.0168,0.0169,0.0168,0.016,0.0165,0.0164,0.0167,0.0168,0.0157,0.0161,0.0164,0.0123,0.0123,0.0123,0,0,0.0241,0.024,0.0249,0.025,0.0248,0.0243,0.0246,0.0238,0.0236,0.0238,0.0221,0.0214,0.0203,0.0195,0.019,0.0207,0.0185,0.0204,0.0231,0.0222,0.0225,0.0228,0.0214,0.0215,0.0207,0.0207,0.0207,0,0.0247,0.026,0.0251,0.0262,0.0268,0.0253,0.0267,0.0263,0.0254,0.0258,0.0246,0.0233,0.0216,0.0222,0.0228,0.0217,0.0206,0.0217,0.0228,0.023,0.0232,0.0217,0.0217,0.021,0.021,0.0209,0.0209,0,0.0268,0.0279,0.0285,0.0296,0.0301,0.031,0.0306,0.0309,0.0304,0.0302,0.0304,0.0279,0.0273,0.0267,0.0253,0.026,0.0246,0.0234,0.0219,0.0239,0.0221,0.0221,0.0213,0.0212,0.0212,0.0211,0,0,0.0283,0.0298,0.0302,0.0316,0.0322,0.033,0.0343,0.0354,0.0369,0.0354,0.037,0.0351,0.0336,0.0328,0.0306,0.0296,0.0297,0.0274,0.0272,0.0264,0.0276,0.0278,0.0277,0.0289,0.0289,0.0289,0.0259,0,0.0304,0.0333,0.0336,0.0367,0.0382,0.038,0.0397,0.0404,0.0405,0.0416,0.0392,0.0397,0.036,0.036,0.0344,0.0313,0.0298,0.0306,0.0253,0.0252,0.0255,0.0278,0.0272,0.0246,0.0258,0.0258,0.0258,0,0.0328,0.0346,0.0379,0.0408,0.0416,0.0432,0.0461,0.0475,0.0483,0.0484,0.0479,0.0459,0.0445,0.0409,0.0362,0.037,0.0326,0.0295,0.0293,0.0278,0.0254,0.0226,0.0244,0.0257,0.0257,0.0257,0.0257,0,0.0349,0.0379,0.041,0.0419,0.0446,0.0464,0.048,0.0497,0.0522,0.0529,0.0548,0.0517,0.0514,0.0456,0.039,0.0378,0.0335,0.031,0.0267,0.0266,0.0242,0.0239,0.0272,0.0272,0.0272,0.0272,0.0272,0,0.0375,0.0399,0.0422,0.0439,0.0482,0.0491,0.0538,0.0548,0.0576,0.0622,0.0585,0.0611,0.0527,0.0492,0.0414,0.0347,0.0353,0.0277,0.0263,0.0258,0.0257,0.025,0.0248,0.0271,0.0271,0.0271,0.0272,0,0.0393,0.0408,0.0445,0.0478,0.0493,0.0524,0.0579,0.0615,0.0633,0.0692,0.07,0.0689,0.0652,0.0559,0.0472,0.0394,0.0318,0.0287,0.0287,0.0273,0.0245,0.0245,0.0238,0.0238,0.0238,0.0238,0.0238,0,0.0405,0.0425,0.0472,0.0501,0.0518,0.0566,0.0606,0.0641,0.0688,0.0749,0.0785,0.0768,0.078,0.0647,0.0503,0.037,0.0339,0.0265,0.0241,0.0257,0.0243,0.0244,0.0245,0.0222,0.0222,0.0222,0.0222,0,0.0426,0.0442,0.0474,0.0531,0.0578,0.0636,0.0697,0.0746,0.0806,0.0868,0.0944,0.0961,0.0842,0.0719,0.0526,0.0421,0.0286,0.0259,0.028,0.0239,0.0241,0.0228,0.0229,0.022,0.022,0.0221,0.0221,0.0221,0.0441,0.0466,0.0509,0.0566,0.0623,0.0704,0.0767,0.0848,0.0948,0.105,0.1059,0.1091,0.0923,0.0696,0.0502,0.0288,0.0313,0.0221,0.0221,0.0222,0.0232,0.0236,0.0215,0.0215,0.0215,0.0215,0.0215,0,0.0458,0.0491,0.0542,0.0614,0.068,0.0713,0.0829,0.09,0.1036,0.1133,0.1209,0.1059,0.0914,0.0708,0.0408,0.0235,0.0198,0.0154,0.0147,0.0151,0.0153,0.0159,0.0123,0.0122,0.0121,0.012,0,0,0.0468,0.0513,0.054,0.0645,0.0706,0.0809,0.0885,0.1004,0.11,0.1205,0.1237,0.1241,0.1003,0.0759,0.0505,0.0322,0.0272,0.027,0.0365,0.0392,0.0396,0.0215,0.0232,0,0,0,0,0]}],[{"header":{"parameterUnit":"m.s-1","parameterCategory":2,"la1":30.2991,"la2":30.254,"lo1":-89.0895,"lo2":-89.0444,"dy":0.0017,"dx":0.0017,"nx":28,"ny":28,"refTime":"2024-05-26T21:00:00:Z","depth":"4","parameterNumber":2,"parameterNumberName":"U-component_of_CURRENTS"},"data":[0,0,0,0,0,0,0,0,0,0,0,0,0,0,0,0,0,0,0,0,0,0,0,0,0,0,0,0,0,0,0,0,0,0,0,0,0,0,0,0,0,0,0,0,0,0,0,0,0,0,0,0,0,0,0,0,0,0,0.1157,0.1158,0,0.1176,0.1176,0.1176,0.1199,0.1199,0.12,0.12,0.1231,0.1232,0.1232,0,0,0,0,0,0,0,0,0,0,0,0,0,0.1136,0.1136,0.1157,0.1158,0.1158,0.1176,0.1176,0.1176,0.1199,0.1199,0.12,0.12,0.1231,0.1231,0.1232,0,0,0,0,0,0,0,0,0,0,0,0,0,0.1148,0.1136,0.1157,0.1172,0.1174,0.1176,0.1176,0.1176,0.1198,0.1199,0.12,0.1201,0.1231,0.1231,0.1232,0.1222,0,0,0.1234,0.1234,0,0,0,0,0,0,0,0,0.1147,0.1148,0.117,0.1171,0.1173,0.1187,0.118,0.1193,0.1198,0.1188,0.12,0.1201,0.1218,0.122,0.1219,0.1223,0.1224,0.1234,0.1234,0.1234,0.1235,0,0,0,0,0,0,0,0.1146,0.1148,0.1163,0.117,0.1172,0.1177,0.1179,0.1182,0.1198,0.1189,0.1191,0.1195,0.1219,0.1219,0.122,0.1225,0.1234,0.1234,0.1235,0.1235,0.1291,0.1292,0,0,0,0,0,0,0.1146,0.1147,0.1163,0.1164,0.1163,0.1176,0.1179,0.1181,0.1198,0.1201,0.1194,0.1196,0.1217,0.122,0.1222,0.1274,0.1234,0.1235,0.1235,0.129,0.1292,0.1293,0,0,0,0,0,0,0.1145,0.1147,0.1162,0.1157,0.116,0.1176,0.1178,0.1181,0.1205,0.1202,0.1205,0.1219,0.1218,0.1221,0.1245,0.1273,0.1235,0.1236,0.1289,0.1291,0.1292,0.1338,0,0,0,0,0,0,0.1145,0.1147,0.1161,0.1157,0.116,0.1177,0.1177,0.1181,0.1206,0.1209,0.1224,0.1226,0.1219,0.1244,0.1246,0.1273,0.1236,0.1287,0.129,0.1292,0.1335,0.1341,0.1346,0,0,0,0,0,0.1144,0.1155,0.1162,0.1165,0.1175,0.1178,0.118,0.1193,0.1207,0.1218,0.1231,0.1227,0.1259,0.1245,0.1247,0.1275,0.1286,0.1289,0.1292,0.1332,0.1339,0.1346,0,0,0,0,0,0,0.1155,0.1159,0.1166,0.1179,0.1186,0.1183,0.12,0.1207,0.1227,0.124,0.1237,0.1239,0.1274,0.1267,0.1252,0.1298,0.1274,0.1277,0.1304,0.1311,0.1317,0.1317,0.1237,0,0,0,0,0,0.1164,0.1176,0.1176,0.1191,0.1197,0.1204,0.1214,0.1222,0.1231,0.1242,0.1251,0.1266,0.128,0.1291,0.13,0.132,0.132,0.1341,0.1347,0.1352,0.1353,0.1375,0.1383,0.1301,0.1301,0.1301,0,0,0.1173,0.1178,0.1186,0.1195,0.1204,0.1213,0.1212,0.1233,0.1247,0.1241,0.1275,0.1287,0.1291,0.1318,0.1333,0.1319,0.1377,0.1355,0.1359,0.1358,0.1378,0.1386,0.1393,0.1303,0.1303,0.1302,0,0,0.1187,0.1203,0.1214,0.1221,0.1238,0.124,0.1251,0.1262,0.1278,0.1305,0.131,0.1336,0.1358,0.1363,0.1369,0.1409,0.1407,0.1422,0.1448,0.1469,0.1476,0.1482,0.1498,0.1505,0.1422,0.1422,0.1422,0,0.1202,0.121,0.1219,0.1229,0.124,0.1255,0.1267,0.1281,0.1301,0.1316,0.1326,0.137,0.1377,0.1404,0.1423,0.1422,0.1434,0.1421,0.1476,0.1482,0.1487,0.1502,0.1509,0.1425,0.1424,0.1424,0.1424,0,0.1212,0.1229,0.1238,0.1254,0.1268,0.1283,0.1298,0.1323,0.135,0.1362,0.1407,0.1419,0.1443,0.1457,0.1455,0.1498,0.1495,0.1483,0.1458,0.1498,0.1512,0.1518,0.1428,0.1427,0.1427,0.1426,0,0,0.1211,0.1239,0.1245,0.1256,0.1284,0.129,0.1326,0.1349,0.1375,0.1411,0.1444,0.1481,0.1496,0.1503,0.151,0.1532,0.1584,0.1531,0.1531,0.1544,0.1638,0.1527,0.1523,0.1587,0.1589,0.159,0.1635,0,0.1217,0.1238,0.1253,0.1278,0.1288,0.1315,0.1341,0.1371,0.1404,0.144,0.1471,0.1507,0.151,0.1535,0.1559,0.158,0.1603,0.1573,0.1599,0.1599,0.1493,0.1527,0.1594,0.1639,0.1641,0.1642,0.1643,0,0.1213,0.1229,0.1255,0.1285,0.1293,0.1316,0.1361,0.1387,0.1439,0.1468,0.1513,0.1536,0.1584,0.158,0.1636,0.1622,0.1638,0.1648,0.165,0.1532,0.1499,0.1589,0.1654,0.1653,0.1652,0.1652,0.1651,0,0.1193,0.1226,0.1248,0.1259,0.1298,0.1324,0.1353,0.1402,0.1429,0.1494,0.1528,0.1576,0.1618,0.1646,0.1678,0.1668,0.1733,0.1713,0.1626,0.1618,0.1685,0.1678,0.175,0.175,0.175,0.175,0.175,0,0.1174,0.1194,0.1245,0.1255,0.1284,0.1321,0.1361,0.1397,0.1456,0.1486,0.1546,0.1575,0.1641,0.1682,0.1696,0.168,0.1748,0.1633,0.1621,0.1704,0.1699,0.169,0.1683,0.1751,0.1751,0.1751,0.1751,0,0.114,0.1175,0.1201,0.1255,0.1274,0.1299,0.1362,0.1385,0.1454,0.15,0.1527,0.16,0.1644,0.1691,0.174,0.1693,0.1692,0.1671,0.1766,0.1759,0.156,0.1555,0.1566,0.1562,0.1559,0.1557,0.1555,0,0.1119,0.1132,0.1196,0.1214,0.1242,0.1287,0.1312,0.1379,0.1401,0.1495,0.1507,0.1584,0.162,0.1599,0.1655,0.1664,0.1646,0.1633,0.1582,0.1553,0.1541,0.1541,0.1539,0.155,0.1549,0.1548,0.1548,0,0.108,0.1118,0.1142,0.118,0.1213,0.1234,0.1278,0.1284,0.1357,0.1437,0.1445,0.146,0.1505,0.1526,0.155,0.1553,0.1629,0.1601,0.1606,0.1558,0.1534,0.1525,0.1527,0.1537,0.1539,0.154,0.154,0,0.1058,0.1067,0.1109,0.1127,0.1167,0.1163,0.1192,0.1208,0.1236,0.1332,0.1334,0.1412,0.1488,0.147,0.149,0.1484,0.1454,0.1397,0.1413,0.1425,0.1356,0.1303,0.1226,0,0,0,0,0,0.1026,0.1027,0.1047,0.1057,0.1091,0.1109,0.1157,0.1186,0.1258,0.1229,0.1273,0.1302,0.1317,0.1357,0.1322,0.1433,0.1468,0.1385,0.1413,0.1479,0.1491,0.1422,0,0,0,0,0,0,0.1006,0.103,0.1025,0.0991,0.0984,0.1005,0.1032,0.1081,0.1061,0.1144,0.1159,0.1223,0.1261,0.1328,0.1298,0.1311,0.1299,0.1435,0.1431,0.1472,0.1483,0.1493,0.1426,0,0,0,0,0]},{"header":{"parameterUnit":"m.s-1","parameterCategory":2,"la1":30.2991,"la2":30.254,"lo1":-89.0895,"lo2":-89.0444,"dy":0.0017,"dx":0.0017,"nx":28,"ny":28,"refTime":"2024-05-26T21:00:00:Z","depth":"4","parameterNumber":3,"parameterNumberName":"V-component_of_CURRENTS"},"data":[0,0,0,0,0,0,0,0,0,0,0,0,0,0,0,0,0,0,0,0,0,0,0,0,0,0,0,0,0,0,0,0,0,0,0,0,0,0,0,0,0,0,0,0,0,0,0,0,0,0,0,0,0,0,0,0,0,0,0.0069,0.0069,0,0.0047,0.0047,0.0047,0.0031,0.0031,0.003,0.003,-0.0,-0.0001,-0.0002,0,0,0,0,0,0,0,0,0,0,0,0,0,0.0081,0.0081,0.0069,0.0069,0.0069,0.0047,0.0047,0.0046,0.0031,0.0031,0.003,0.003,0.0,-0.0001,-0.0002,0,0,0,0,0,0,0,0,0,0,0,0,0,0.0069,0.0081,0.0069,0.0059,0.0057,0.0047,0.0047,0.0046,0.0031,0.0031,0.003,0.003,0.0,-0.0001,-0.0002,-0.0006,0,0,-0.0005,-0.0006,0,0,0,0,0,0,0,0,0.0069,0.0068,0.006,0.0059,0.0058,0.0042,0.004,0.0029,0.0031,0.004,0.003,0.003,0.0014,0.0011,0.0007,-0.0008,-0.0009,-0.0005,-0.0006,-0.0006,-0.0007,0,0,0,0,0,0,0,0.007,0.0069,0.006,0.006,0.0059,0.0049,0.0047,0.0037,0.0027,0.0039,0.0038,0.0037,0.0013,0.0008,0.0006,-0.0009,-0.0005,-0.0006,-0.0007,-0.0007,-0.0017,-0.0016,0,0,0,0,0,0,0.0075,0.007,0.0061,0.0059,0.0064,0.0049,0.0047,0.0047,0.0028,0.0025,0.0037,0.0036,0.001,0.0007,0.0005,0.0017,-0.0006,-0.0007,-0.0008,-0.0017,-0.0017,-0.0016,0,0,0,0,0,0,0.0075,0.0074,0.0062,0.0064,0.0062,0.0049,0.0049,0.0046,0.0045,0.0026,0.0023,0.0039,0.001,0.0006,0.0002,0.0015,-0.0008,-0.0009,-0.0018,-0.0017,-0.0016,0.003,0,0,0,0,0,0,0.0076,0.0075,0.0078,0.0065,0.0062,0.0061,0.0049,0.0046,0.0045,0.0043,0.0027,0.0023,0.0009,0.0004,0.0001,0.0013,-0.001,-0.0018,-0.0017,-0.0017,0.0028,0.0032,0.0036,0,0,0,0,0,0.0076,0.0082,0.0079,0.0078,0.0067,0.0062,0.006,0.0049,0.0045,0.0048,0.0037,0.0024,0.0007,0.0003,-0.0,0.0012,-0.0019,-0.0018,-0.0017,0.0026,0.0031,0.0036,0,0,0,0,0,0,0.0089,0.0081,0.0077,0.008,0.0074,0.0059,0.0061,0.0054,0.0047,0.0047,0.0028,0.0025,0.0025,0.0011,0.0008,0.0011,-0.0008,-0.0007,0.0026,0.0031,0.0035,0.0043,-0.0011,0,0,0,0,0,0.0094,0.0097,0.0086,0.009,0.0088,0.0076,0.0074,0.0067,0.0058,0.0055,0.0043,0.0032,0.0025,0.0023,0.0012,0.0014,0.0002,0.002,0.0024,0.0027,0.0031,0.0024,0.0028,-0.0013,-0.0013,-0.0013,0,0,0.01,0.0096,0.0098,0.0093,0.0088,0.0091,0.0074,0.0074,0.008,0.0053,0.0058,0.0044,0.0028,0.0031,0.003,0.0022,0.0032,0.0028,0.0031,0.0033,0.0026,0.003,0.0033,-0.0013,-0.0013,-0.0013,0,0,0.0114,0.0111,0.0117,0.0116,0.0111,0.0105,0.0108,0.0097,0.0095,0.0097,0.008,0.0076,0.0065,0.0058,0.0053,0.0071,0.0051,0.0068,0.0097,0.0091,0.0094,0.0097,0.0089,0.009,0.0072,0.0072,0.0072,0,0.0122,0.0129,0.0119,0.0126,0.013,0.0115,0.0126,0.0122,0.0112,0.0118,0.0106,0.0095,0.0079,0.0086,0.0092,0.0081,0.0072,0.0082,0.0097,0.0099,0.0101,0.0092,0.0093,0.0075,0.0074,0.0074,0.0074,0,0.0138,0.0147,0.0152,0.0158,0.0161,0.0168,0.0163,0.0166,0.0163,0.0161,0.0165,0.0143,0.0138,0.0133,0.0118,0.0128,0.0115,0.0101,0.0087,0.0108,0.0097,0.0097,0.0078,0.0077,0.0076,0.0076,0,0,0.0152,0.0162,0.0166,0.0178,0.018,0.0186,0.0199,0.0209,0.0225,0.0212,0.0231,0.0214,0.0202,0.0194,0.0174,0.0167,0.0172,0.0144,0.0142,0.0139,0.0159,0.0143,0.0141,0.0162,0.0162,0.0163,0.0146,0,0.017,0.0192,0.0194,0.0221,0.0233,0.0232,0.0248,0.0256,0.0259,0.0272,0.0253,0.026,0.0226,0.0227,0.0214,0.0184,0.0176,0.0178,0.0135,0.0134,0.012,0.0142,0.0164,0.0146,0.0146,0.0146,0.0146,0,0.0188,0.0202,0.0231,0.0259,0.0266,0.0282,0.0311,0.0325,0.0337,0.034,0.0339,0.0322,0.0313,0.0278,0.024,0.0244,0.0206,0.0178,0.0176,0.0145,0.0119,0.0118,0.0147,0.0147,0.0147,0.0147,0.0147,0,0.0205,0.0231,0.0259,0.0267,0.0293,0.0312,0.0329,0.0348,0.0373,0.0386,0.0404,0.0381,0.038,0.033,0.0269,0.0258,0.0223,0.02,0.0148,0.0146,0.0145,0.0142,0.0172,0.0172,0.0172,0.0172,0.0172,0,0.0224,0.0248,0.0271,0.0287,0.0329,0.0339,0.0386,0.0398,0.0428,0.0468,0.0442,0.0459,0.0394,0.0363,0.0294,0.0227,0.0242,0.0159,0.0144,0.0164,0.0164,0.0145,0.0142,0.0171,0.0171,0.0171,0.0172,0,0.0239,0.0253,0.0288,0.0322,0.0339,0.037,0.0425,0.0459,0.0481,0.053,0.0539,0.0528,0.0489,0.0415,0.034,0.0269,0.02,0.0169,0.0204,0.019,0.012,0.0119,0.0114,0.0113,0.0113,0.0112,0.0112,0,0.0247,0.0265,0.0314,0.034,0.0359,0.0407,0.0445,0.0483,0.0521,0.0572,0.0596,0.0581,0.0558,0.0448,0.0357,0.0231,0.0201,0.0159,0.013,0.0129,0.0115,0.0116,0.0116,0.0111,0.0111,0.0111,0.0111,0,0.0262,0.0281,0.031,0.0361,0.0406,0.046,0.0514,0.0549,0.0601,0.0623,0.065,0.0599,0.0556,0.0456,0.0362,0.0265,0.0183,0.0152,0.0152,0.0125,0.0126,0.0112,0.0113,0.0109,0.0109,0.0109,0.0109,0,0.0274,0.0294,0.0331,0.0378,0.0436,0.0496,0.0527,0.0577,0.0619,0.067,0.0679,0.0634,0.0612,0.0475,0.0387,0.0293,0.0255,0.0203,0.02,0.02,0.022,0.0234,0.0246,0,0,0,0,0,0.0279,0.0299,0.0343,0.0397,0.0457,0.0491,0.0566,0.0595,0.0648,0.0672,0.0678,0.0637,0.0523,0.0477,0.0381,0.0355,0.0226,0.0235,0.016,0.0098,0.0101,0.0106,0,0,0,0,0,0,0.0281,0.0318,0.0338,0.0405,0.0443,0.0514,0.0564,0.0602,0.0615,0.0652,0.0598,0.0586,0.0476,0.0576,0.037,0.0344,0.0276,0.0188,0.0185,0.0097,0.0099,0.0101,0.0108,0,0,0,0,0]}]]